Weather History for KVTN - August, 2013

Change the Weather History Date:

Thursday, August 15, 2013

  Actual Average Record
Temperature  
Mean Temperature 65 °F 73 °F  
Max Temperature 68 °F 87 °F 108 °F (1937)
Min Temperature 61 °F 59 °F 44 °F (1959)
Degree Days  
Heating Degree Days 0 0  
Month to date heating degree days 0 0  
Since 1 June heating degree days 57 69  
Since 1 July heating degree days 3 8  
Cooling Degree Days 0 9  
Month to date cooling degree days 84 143  
Year to date cooling degree days 561 618  
Since 1 June cooling degree days 522 584  
Growing Degree Days 14 (Base 50)    
Moisture  
Dew Point 61 °F    
Average Humidity 88    
Maximum Humidity 100    
Minimum Humidity 76    
Precipitation  
Precipitation T in 0.07 in 1.40 in (1991)
Month to date precipitation 1.91 1.28  
Year to date precipitation 17.54 15.21  
Snow  
Snow 0.00 in 0.00 in 0.00 in ()
Month to date snowfall 0.0 0.0  
Since 1 June snowfall 0.0 0.0  
Since 1 July snowfall 0.0 0.0  
Snow Depth 0.00 in    
Sea Level Pressure  
Sea Level Pressure 30.06 in    
Wind  
Wind Speed 6 mph (East)    
Max Wind Speed 13 mph    
Max Gust Speed 15 mph    
Visibility 6 miles    
Events Rain    
T = Trace of Precipitation, MM = Missing Value Source: NWS Daily Summary

Daily Weather History Graph

Daily Weather History Graph

Search for Another Location

Airport or City:

Trip Planner

Search our weather history database for the weather conditions in past years. The results will help you decide how hot, cold, wet, or windy it might be!

Date:

Astronomy

Aug. 15, 2013 Rise Set
Actual Time 6:48 AM CDT 8:43 PM CDT
Civil Twilight 6:18 AM CDT 9:14 PM CDT
Nautical Twilight 5:40 AM CDT 9:51 PM CDT
Astronomical Twilight 5:00 AM CDT 10:31 PM CDT
Moon 4:05 PM CDT (8/15) 12:57 AM CDT (8/15)
Length of Visible Light 14h 56m
Length of Day
13h 55m
Waxing Gibbous, 64% of the Moon is Illuminated
Aug 15
Waxing Gibbous
Aug 20
Full
Aug 28
Last Quarter
Sep 5
New
Sep 12
First Quarter

Hourly Weather History & Observations

Time (CDT) Temp. Dew Point Humidity Pressure Visibility Wind Dir Wind Speed Gust Speed Precip Events Conditions
12:52 AM 63.0 °F 61.0 °F 93% 30.04 in 7.0 mi East 8.1 mph - N/A   Overcast
1:52 AM 63.0 °F 60.1 °F 90% 30.04 in 9.0 mi East 6.9 mph - N/A   Overcast
2:52 AM 63.0 °F 60.1 °F 90% 30.03 in 8.0 mi East 5.8 mph - N/A   Overcast
3:52 AM 62.1 °F 60.1 °F 93% 30.01 in 7.0 mi East 6.9 mph - N/A   Overcast
4:23 AM 60.8 °F 60.8 °F 100% 30.04 in 5.0 mi East 6.9 mph - N/A   Overcast
4:52 AM 61.0 °F 60.1 °F 97% 29.99 in 4.0 mi ESE 8.1 mph - N/A   Overcast
5:18 AM 60.8 °F 60.8 °F 100% 30.04 in 1.8 mi ESE 8.1 mph - N/A   Overcast
5:34 AM 60.8 °F 60.8 °F 100% 30.03 in 3.0 mi East 8.1 mph - N/A   Overcast
5:52 AM 61.0 °F 60.1 °F 97% 29.99 in 3.0 mi East 8.1 mph - N/A   Overcast
6:00 AM 60.8 °F 60.8 °F 100% 30.03 in 1.8 mi East 10.4 mph - N/A   Overcast
6:35 AM 60.8 °F 60.8 °F 100% 30.04 in 1.0 mi East 4.6 mph - N/A   Overcast
6:52 AM 61.0 °F 61.0 °F 100% 30.01 in 0.8 mi East 6.9 mph - N/A   Mist
7:52 AM 61.0 °F 61.0 °F 100% 30.04 in 0.8 mi ESE 4.6 mph - N/A   Overcast
7:56 AM 60.8 °F 60.8 °F 100% 30.07 in 1.2 mi SE 3.5 mph - N/A   Overcast
8:18 AM 60.8 °F 60.8 °F 100% 30.08 in 0.8 mi East 3.5 mph - N/A   Overcast
8:39 AM 60.8 °F 60.8 °F 100% 30.09 in 1.0 mi Calm Calm - N/A   Overcast
8:52 AM 62.1 °F 61.0 °F 96% 30.06 in 0.8 mi East 3.5 mph - 0.00 in Rain Light Rain
9:00 AM 62.6 °F 60.8 °F 94% 30.08 in 1.0 mi East 4.6 mph - 0.00 in   Overcast
9:22 AM 62.6 °F 60.8 °F 94% 30.08 in 1.5 mi East 4.6 mph - 0.00 in   Overcast
9:32 AM 62.6 °F 60.8 °F 94% 30.08 in 3.0 mi East 4.6 mph - 0.00 in   Overcast
9:48 AM 62.6 °F 60.8 °F 94% 30.08 in 2.5 mi East 5.8 mph - 0.00 in   Overcast
9:52 AM 63.0 °F 61.0 °F 93% 30.06 in 3.0 mi East 6.9 mph - 0.00 in   Overcast
10:52 AM 63.0 °F 62.1 °F 97% 30.05 in 2.5 mi East 8.1 mph - N/A   Overcast
11:08 AM 62.6 °F 62.6 °F 100% 30.07 in 1.5 mi ENE 9.2 mph - N/A   Overcast
11:29 AM 62.6 °F 62.6 °F 100% 30.07 in 2.0 mi ENE 12.7 mph - N/A   Overcast
11:37 AM 62.6 °F 62.6 °F 100% 30.06 in 1.8 mi ENE 10.4 mph - N/A   Overcast
11:49 AM 62.6 °F 62.6 °F 100% 30.07 in 2.0 mi ENE 10.4 mph - N/A   Overcast
11:52 AM 63.0 °F 62.1 °F 97% 30.04 in 2.0 mi ENE 8.1 mph - N/A   Overcast
12:03 PM 62.6 °F 62.6 °F 100% 30.08 in 4.0 mi East 5.8 mph - N/A   Overcast
12:36 PM 64.4 °F 60.8 °F 88% 30.08 in 7.0 mi East 6.9 mph - N/A   Overcast
12:52 PM 64.9 °F 61.0 °F 87% 30.06 in 10.0 mi ENE 6.9 mph - N/A   Overcast
1:10 PM 66.2 °F 60.8 °F 83% 30.08 in 10.0 mi North 4.6 mph - N/A   Overcast
1:52 PM 66.9 °F 61.0 °F 81% 30.05 in 10.0 mi ENE 5.8 mph - N/A   Overcast
2:52 PM 66.0 °F 61.0 °F 84% 30.06 in 10.0 mi ENE 6.9 mph - N/A   Overcast
3:52 PM 66.0 °F 61.0 °F 84% 30.06 in 10.0 mi ENE 6.9 mph - N/A   Overcast
4:52 PM 66.9 °F 61.0 °F 81% 30.06 in 10.0 mi ENE 5.8 mph - N/A   Overcast
5:08 PM 66.2 °F 60.8 °F 83% 30.09 in 10.0 mi ENE 5.8 mph - N/A   Overcast
5:52 PM 66.9 °F 61.0 °F 81% 30.07 in 10.0 mi NE 6.9 mph - N/A   Overcast
6:52 PM 66.9 °F 61.0 °F 81% 30.06 in 10.0 mi Calm Calm - N/A   Overcast
7:52 PM 68.0 °F 61.0 °F 78% 30.06 in 10.0 mi NNE 3.5 mph - N/A   Overcast
8:34 PM 66.2 °F 60.8 °F 83% 30.09 in 10.0 mi NE 4.6 mph - N/A   Partly Cloudy
8:52 PM 64.0 °F 60.1 °F 87% 30.08 in 10.0 mi NE 4.6 mph - N/A   Clear
9:52 PM 63.0 °F 61.0 °F 93% 30.10 in 10.0 mi East 3.5 mph - N/A   Scattered Clouds
10:09 PM 64.4 °F 60.8 °F 88% 30.13 in 10.0 mi East 6.9 mph - N/A   Mostly Cloudy
10:20 PM 62.6 °F 62.6 °F 100% 30.14 in 8.0 mi ESE 8.1 mph - N/A   Overcast
10:45 PM 62.6 °F 60.8 °F 94% 30.14 in 7.0 mi ESE 9.2 mph - N/A   Mostly Cloudy
10:52 PM 63.0 °F 61.0 °F 93% 30.12 in 6.0 mi ESE 6.9 mph - N/A   Mostly Cloudy